When you browse on this site, cookies collect data to enhance your experience and personalize the content and advertising you see.
Visit our Privacy Policy to learn more. By continuing to use the site, you agree to this use of cookies and data.
  • en Suisse
  • Liste des pays
  • À 7 jours
  • Température de l'eau
  • Carte météo
  • Widgets météo
  • user-avatar
    Se connecter

    Météo par heure à Glasgow

    Ce jour, 8 Avril, Mercredi

    Heure Température Précipitation Vent Pression Humidité
    00:00 +6°C° 0 mm 5 m/s 766 mmHg 71%
    01:00 +6°C° 0 mm 5 m/s 765 mmHg 70%
    02:00 +6°C° 0 mm 5 m/s 765 mmHg 70%
    03:00 +6°C° 0 mm 5 m/s 765 mmHg 69%
    04:00 +6°C° 0 mm 5 m/s 765 mmHg 72%
    05:00 +6°C° 0 mm 5 m/s 765 mmHg 74%
    06:00 +6°C° 0 mm 5 m/s 765 mmHg 78%
    07:00 +8°C° 0 mm 5 m/s 764 mmHg 74%
    08:00 +10°C° 0 mm 5 m/s 764 mmHg 70%
    09:00 +13°C° 0 mm 5 m/s 764 mmHg 66%
    10:00 +13°C° 0 mm 5 m/s 764 mmHg 64%
    11:00 +14°C° 0 mm 5 m/s 764 mmHg 62%
    12:00 +15°C° 0 mm 5 m/s 764 mmHg 60%
    13:00 +13°C° 0.2 mm 6 m/s 765 mmHg 68%
    14:00 +10°C° 0.2 mm 6 m/s 765 mmHg 77%
    15:00 +9°C° 0.2 mm 6 m/s 765 mmHg 86%
    16:00 +7°C° 0.1 mm 6 m/s 765 mmHg 86%
    17:00 +5°C° 0.1 mm 6 m/s 766 mmHg 86%
    18:00 +4°C° 0.1 mm 6 m/s 766 mmHg 86%
    19:00 +5°C° 0.1 mm 5 m/s 767 mmHg 84%
    20:00 +5°C° 0.1 mm 4 m/s 767 mmHg 83%
    21:00 +5°C° 0.1 mm 2 m/s 768 mmHg 82%
    22:00 +5°C° 0 mm 2 m/s 768 mmHg 82%
    23:00 +5°C° 0 mm 2 m/s 769 mmHg 82%

    Demain, 9 Avril, Jeudi

    Heure Température Précipitation Vent Pression Humidité
    00:00 +5°C° 0 mm 2 m/s 769 mmHg 82%
    01:00 +5°C° 0 mm 2 m/s 769 mmHg 81%
    02:00 +6°C° 0 mm 1 m/s 769 mmHg 81%
    03:00 +6°C° 0 mm 1 m/s 769 mmHg 81%
    04:00 +6°C° 0 mm 1 m/s 769 mmHg 81%
    05:00 +6°C° 0 mm 1 m/s 770 mmHg 81%
    06:00 +6°C° 0 mm 1 m/s 770 mmHg 81%
    07:00 +6°C° 0 mm 2 m/s 770 mmHg 77%
    08:00 +7°C° 0 mm 2 m/s 770 mmHg 73%
    09:00 +7°C° 0 mm 3 m/s 770 mmHg 69%
    10:00 +8°C° 0 mm 3 m/s 770 mmHg 68%
    11:00 +7°C° 0 mm 4 m/s 770 mmHg 67%
    12:00 +8°C° 0 mm 4 m/s 770 mmHg 67%
    13:00 +8°C° 0 mm 5 m/s 770 mmHg 67%
    14:00 +8°C° 0 mm 5 m/s 770 mmHg 68%
    15:00 +8°C° 0 mm 5 m/s 770 mmHg 69%
    16:00 +8°C° 0 mm 5 m/s 770 mmHg 72%
    17:00 +7°C° 0 mm 5 m/s 769 mmHg 76%
    18:00 +6°C° 0 mm 5 m/s 769 mmHg 80%
    19:00 +6°C° 0 mm 5 m/s 769 mmHg 82%
    20:00 +6°C° 0 mm 5 m/s 769 mmHg 85%
    21:00 +5°C° 0 mm 5 m/s 769 mmHg 88%
    22:00 +5°C° 0 mm 5 m/s 769 mmHg 90%
    23:00 +5°C° 0 mm 5 m/s 769 mmHg 92%

    Après-demain, 10 Avril, Vendredi

    Heure Température Précipitation Vent Pression Humidité
    00:00 +5°C° 0 mm 5 m/s 768 mmHg 94%
    01:00 +5°C° 0 mm 5 m/s 768 mmHg 95%
    02:00 +3°C° 0 mm 5 m/s 767 mmHg 96%
    03:00 +3°C° 0 mm 5 m/s 767 mmHg 97%
    04:00 +5°C° 0 mm 5 m/s 767 mmHg 95%
    05:00 +6°C° 0 mm 5 m/s 766 mmHg 94%
    06:00 +6°C° 0 mm 4 m/s 766 mmHg 93%
    07:00 +8°C° 0 mm 4 m/s 766 mmHg 88%
    08:00 +11°C° 0 mm 4 m/s 766 mmHg 84%
    09:00 +13°C° 0 mm 4 m/s 765 mmHg 79%
    10:00 +14°C° 0 mm 4 m/s 765 mmHg 75%
    11:00 +15°C° 0 mm 4 m/s 765 mmHg 71%
    12:00 +16°C° 0 mm 5 m/s 765 mmHg 66%
    13:00 +17°C° 0.1 mm 5 m/s 764 mmHg 66%
    14:00 +17°C° 0.1 mm 5 m/s 764 mmHg 66%
    15:00 +17°C° 0.1 mm 5 m/s 763 mmHg 66%
    16:00 +16°C° 0.5 mm 5 m/s 763 mmHg 71%
    17:00 +15°C° 0.5 mm 5 m/s 763 mmHg 77%
    18:00 +14°C° 0.5 mm 4 m/s 763 mmHg 83%
    19:00 +13°C° 0.3 mm 4 m/s 763 mmHg 86%
    20:00 +13°C° 0.3 mm 4 m/s 763 mmHg 88%
    21:00 +12°C° 0.3 mm 3 m/s 763 mmHg 91%
    22:00 +12°C° 0.1 mm 3 m/s 762 mmHg 90%
    23:00 +13°C° 0.1 mm 2 m/s 762 mmHg 90%

    11 Avril, Samedi

    Heure Température Précipitation Vent Pression Humidité
    00:00 +13°C° 0.1 mm 2 m/s 762 mmHg 90%
    01:00 +13°C° 0 mm 2 m/s 762 mmHg 90%
    02:00 +12°C° 0 mm 3 m/s 761 mmHg 90%
    03:00 +12°C° 0 mm 3 m/s 761 mmHg 90%
    04:00 +11°C° 0.1 mm 3 m/s 761 mmHg 92%
    05:00 +11°C° 0.1 mm 3 m/s 760 mmHg 93%
    06:00 +11°C° 0.1 mm 3 m/s 760 mmHg 94%
    07:00 +12°C° 0.3 mm 3 m/s 760 mmHg 92%
    08:00 +13°C° 0.3 mm 2 m/s 760 mmHg 90%
    09:00 +14°C° 0.3 mm 2 m/s 760 mmHg 88%
    10:00 +15°C° 0.3 mm 2 m/s 760 mmHg 85%
    11:00 +15°C° 0.3 mm 2 m/s 760 mmHg 81%
    12:00 +16°C° 0.3 mm 2 m/s 760 mmHg 78%
    13:00 +15°C° 0.3 mm 2 m/s 760 mmHg 79%
    14:00 +13°C° 0.3 mm 3 m/s 760 mmHg 80%
    15:00 +13°C° 0.3 mm 3 m/s 760 mmHg 82%
    16:00 +12°C° 0.2 mm 3 m/s 760 mmHg 82%
    17:00 +11°C° 0.2 mm 3 m/s 760 mmHg 83%
    18:00 +10°C° 0.2 mm 3 m/s 760 mmHg 83%
    19:00 +10°C° 0 mm 3 m/s 760 mmHg 83%
    20:00 +9°C° 0 mm 3 m/s 761 mmHg 83%
    21:00 +8°C° 0 mm 3 m/s 761 mmHg 83%
    22:00 +8°C° 0 mm 2 m/s 761 mmHg 84%
    23:00 +7°C° 0 mm 2 m/s 761 mmHg 84%

    12 Avril, Dimanche

    Heure Température Précipitation Vent Pression Humidité
    00:00 +7°C° 0 mm 2 m/s 762 mmHg 84%
    01:00 +7°C° 0 mm 2 m/s 762 mmHg 85%
    02:00 +6°C° 0 mm 2 m/s 762 mmHg 86%
    03:00 +6°C° 0 mm 2 m/s 761 mmHg 86%
    04:00 +6°C° 0 mm 2 m/s 762 mmHg 86%
    05:00 +6°C° 0 mm 2 m/s 762 mmHg 86%
    06:00 +6°C° 0 mm 2 m/s 762 mmHg 86%
    07:00 +7°C° 0 mm 2 m/s 763 mmHg 80%
    08:00 +9°C° 0 mm 3 m/s 763 mmHg 74%
    09:00 +10°C° 0 mm 3 m/s 763 mmHg 68%
    10:00 +11°C° 0 mm 3 m/s 763 mmHg 66%
    11:00 +11°C° 0 mm 4 m/s 763 mmHg 63%
    12:00 +12°C° 0 mm 4 m/s 763 mmHg 61%
    13:00 +12°C° 0 mm 5 m/s 764 mmHg 64%
    14:00 +12°C° 0 mm 5 m/s 764 mmHg 67%
    15:00 +10°C° 0 mm 6 m/s 764 mmHg 71%
    16:00 +9°C° 0 mm 6 m/s 765 mmHg 73%
    17:00 +8°C° 0 mm 7 m/s 765 mmHg 76%
    18:00 +6°C° 0 mm 7 m/s 765 mmHg 79%
    19:00 +5°C° 0 mm 7 m/s 766 mmHg 79%
    20:00 +5°C° 0 mm 7 m/s 767 mmHg 79%
    21:00 +4°C° 0 mm 8 m/s 768 mmHg 78%
    22:00 +4°C° 0 mm 7 m/s 768 mmHg 76%
    23:00 +4°C° 0 mm 7 m/s 769 mmHg 74%

    13 Avril, Lundi

    Heure Température Précipitation Vent Pression Humidité
    00:00 +4°C° 0 mm 7 m/s 769 mmHg 72%
    01:00 +4°C° 0 mm 6 m/s 769 mmHg 72%
    02:00 +4°C° 0 mm 6 m/s 770 mmHg 72%
    03:00 +4°C° 0 mm 6 m/s 770 mmHg 72%
    04:00 +3°C° 0 mm 5 m/s 770 mmHg 75%
    05:00 +3°C° 0 mm 5 m/s 770 mmHg 79%
    06:00 +3°C° 0 mm 4 m/s 771 mmHg 83%
    07:00 +4°C° 0 mm 4 m/s 771 mmHg 78%
    08:00 +6°C° 0 mm 4 m/s 771 mmHg 74%
    09:00 +7°C° 0 mm 4 m/s 771 mmHg 69%
    10:00 +8°C° 0 mm 3 m/s 771 mmHg 66%
    11:00 +9°C° 0 mm 3 m/s 771 mmHg 64%
    12:00 +10°C° 0 mm 2 m/s 771 mmHg 61%
    13:00 +10°C° 0 mm 2 m/s 771 mmHg 61%
    14:00 +10°C° 0 mm 2 m/s 771 mmHg 60%
    15:00 +11°C° 0 mm 3 m/s 771 mmHg 60%
    16:00 +9°C° 0 mm 2 m/s 771 mmHg 66%
    17:00 +8°C° 0 mm 2 m/s 771 mmHg 71%
    18:00 +7°C° 0 mm 2 m/s 771 mmHg 77%
    19:00 +5°C° 0 mm 3 m/s 771 mmHg 82%
    20:00 +4°C° 0 mm 3 m/s 771 mmHg 87%
    21:00 +3°C° 0 mm 3 m/s 771 mmHg 92%
    22:00 +3°C° 0 mm 3 m/s 771 mmHg 91%
    23:00 +3°C° 0 mm 4 m/s 771 mmHg 91%
    Voir plus